Regional Weather Roundup
Issued by NWS

Home | Current Version | Previous Version | Graphics & Text | Print | Product List | Glossary On
Versions: 1 2 3 4 5 6 7 8 9 10 11 12 13 14 15 16 17 18 19 20 21 22 23 24 25 26 27 28 29 30 31 32 33 34 35 36 37 38 39 40 41 42 43 44 45 46 47 48 49 50
000
ASUS43 KTOP 021859
RWRKS

WEATHER ROUNDUP FOR KANSAS
NATIONAL WEATHER SERVICE GOODLAND KS
200 PM CDT WED SEP 02 2015

NOTE:  "FAIR" INDICATES FEW OR NO CLOUDS BELOW 12,000 FEET WITH NO
SIGNIFICANT WEATHER AND/OR OBSTRUCTIONS TO VISIBILITY.

KSZ001>006-013>018-027>032-041>047-022000-
NORTHWEST KANSAS

CITY           SKY/WX    TMP DP  RH WIND       PRES   REMARKS
GOODLAND       MOSUNNY   94  49  21 S10       29.95F
HAYS           SUNNY     97  59  28 S18G26    29.87F HX  96
HILL CITY      SUNNY     98  56  24 S8        29.87F HX  96
RUSSELL        SUNNY     97  59  28 S20G28    29.87F HX  96
$$

KSZ061>065-074>080-084>089-022000-
SOUTHWEST KANSAS

CITY           SKY/WX    TMP DP  RH WIND       PRES   REMARKS
DODGE CITY     SUNNY     96  52  22 S18G28    29.93F
ELKHART          N/A     95  59  30 SE6         N/A
GARDEN CITY    SUNNY     94  54  25 SW8       29.92F
GREAT BEND     SUNNY     97  59  28 S22G32    29.88F HX  96
LIBERAL        SUNNY     95  57  28 SW15G21   29.96F
$$

KSZ066>073-081>083-090>101-022000-
SOUTHEAST KANSAS

CITY           SKY/WX    TMP DP  RH WIND       PRES   REMARKS
CHANUTE        SUNNY     87  71  58 S18       30.03F
COFFEYVILLE    SUNNY     86  72  62 S9        30.02F
HUTCHINSON     SUNNY     95  62  33 S23G32    29.93F HX  96
NEWTON         SUNNY     91  63  38 S17G29    29.99S
PARSONS        SUNNY     87  72  60 S12G17    30.04F
WICHITA INTL   MOSUNNY   93  64  38 S20G30    29.95F
WICHITA JABRA  SUNNY     90  66  45 S18G30    29.96F
WINFIELD       SUNNY     93  64  38 S16G26    29.99F
$$

KSZ007>012-019>026-033>040-048>060-102>105-022000-
NORTHEAST KANSAS

CITY           SKY/WX    TMP DP  RH WIND       PRES   REMARKS
CONCORDIA      SUNNY     93  64  38 S21G26    29.89F
EMPORIA        SUNNY     89  66  46 S22       29.97F
LAWRENCE       MOSUNNY   87  72  60 S15       29.98F
MANHATTAN      MOSUNNY   93  65  39 S18G29    29.92F HX  95
OLATHE IND     MOSUNNY   86  72  62 S16G23    30.01F
OLATHE EXE     PTSUNNY   84  71  65 S17G23    30.00F
SALINA         SUNNY     95  63  34 S22G33    29.89F HX  96
TOPEKA BILLARD SUNNY     87  72  60 S13G22    29.97F
TOPEKA FORBES  SUNNY     88  72  58 S14       29.97F
$$



USA.gov is the U.S. government's official web portal to all federal, state and local government web resources and services.